• In Portugal
  • List of Countries
  • For 7 days
  • Water Temperature
  • Satellite Maps
  • Weather Map
  • Weather Widgets
  • user-avatar
    Login

    Hourly Weather Malatya

    Today, 23 October, Monday

    Time Temperature Precipitation Wind Pressure Humidity
    00:00 +13°C° 0 mm 0 mps 670 mmHg 34%
    01:00 +13°C° 0 mm 0 mps 670 mmHg 34%
    02:00 +12°C° 0 mm 0 mps 669 mmHg 35%
    03:00 +13°C° 0 mm 1 mps 669 mmHg 33%
    04:00 +12°C° 0 mm 1 mps 669 mmHg 34%
    05:00 +11°C° 0 mm 0 mps 669 mmHg 35%
    06:00 +10°C° 0 mm 0 mps 669 mmHg 37%
    07:00 +12°C° 0 mm 0 mps 670 mmHg 33%
    08:00 +14°C° 0 mm 0 mps 670 mmHg 29%
    09:00 +18°C° 0 mm 1 mps 671 mmHg 25%
    10:00 +19°C° 0 mm 1 mps 671 mmHg 24%
    11:00 +19°C° 0 mm 2 mps 671 mmHg 23%
    12:00 +21°C° 0 mm 2 mps 672 mmHg 22%
    13:00 +21°C° 0 mm 3 mps 671 mmHg 22%
    14:00 +21°C° 0 mm 3 mps 671 mmHg 22%
    15:00 +22°C° 0 mm 3 mps 671 mmHg 21%
    16:00 +21°C° 0 mm 3 mps 671 mmHg 24%
    17:00 +19°C° 0 mm 2 mps 671 mmHg 27%
    18:00 +18°C° 0 mm 2 mps 670 mmHg 30%
    19:00 +17°C° 0 mm 2 mps 670 mmHg 32%
    20:00 +17°C° 0 mm 2 mps 670 mmHg 33%
    21:00 +16°C° 0 mm 1 mps 671 mmHg 35%
    22:00 +15°C° 0 mm 1 mps 671 mmHg 37%
    23:00 +15°C° 0 mm 1 mps 671 mmHg 39%

    Tomorrow, 24 October, Tuesday

    Time Temperature Precipitation Wind Pressure Humidity
    00:00 +15°C° 0 mm 1 mps 671 mmHg 40%
    01:00 +14°C° 0 mm 1 mps 671 mmHg 43%
    02:00 +14°C° 0 mm 1 mps 671 mmHg 45%
    03:00 +13°C° 0 mm 1 mps 671 mmHg 47%
    04:00 +13°C° 0 mm 1 mps 671 mmHg 48%
    05:00 +13°C° 0 mm 1 mps 670 mmHg 50%
    06:00 +12°C° 0 mm 1 mps 670 mmHg 51%
    07:00 +14°C° 0 mm 2 mps 671 mmHg 47%
    08:00 +15°C° 0 mm 2 mps 671 mmHg 43%
    09:00 +17°C° 0 mm 2 mps 672 mmHg 39%
    10:00 +18°C° 0 mm 3 mps 672 mmHg 35%
    11:00 +20°C° 0 mm 3 mps 672 mmHg 32%
    12:00 +21°C° 0 mm 4 mps 672 mmHg 28%
    13:00 +21°C° 0 mm 4 mps 672 mmHg 26%
    14:00 +22°C° 0 mm 5 mps 672 mmHg 24%
    15:00 +23°C° 0 mm 5 mps 671 mmHg 22%
    16:00 +22°C° 0 mm 4 mps 671 mmHg 24%
    17:00 +21°C° 0 mm 4 mps 671 mmHg 25%
    18:00 +19°C° 0 mm 3 mps 671 mmHg 27%
    19:00 +19°C° 0 mm 3 mps 671 mmHg 29%
    20:00 +18°C° 0 mm 3 mps 671 mmHg 30%
    21:00 +17°C° 0 mm 2 mps 672 mmHg 32%
    22:00 +17°C° 0 mm 2 mps 672 mmHg 33%
    23:00 +16°C° 0 mm 2 mps 672 mmHg 34%

    Day after tomorrow, 25 October, Wednesday

    Time Temperature Precipitation Wind Pressure Humidity
    00:00 +16°C° 0 mm 2 mps 672 mmHg 35%
    01:00 +15°C° 0 mm 2 mps 672 mmHg 36%
    02:00 +15°C° 0 mm 2 mps 672 mmHg 37%
    03:00 +14°C° 0 mm 2 mps 672 mmHg 38%
    04:00 +14°C° 0 mm 2 mps 672 mmHg 39%
    05:00 +14°C° 0 mm 2 mps 672 mmHg 40%
    06:00 +13°C° 0 mm 2 mps 672 mmHg 41%
    07:00 +15°C° 0 mm 2 mps 672 mmHg 37%
    08:00 +16°C° 0 mm 2 mps 673 mmHg 34%
    09:00 +18°C° 0 mm 2 mps 674 mmHg 30%
    10:00 +19°C° 0 mm 3 mps 674 mmHg 28%
    11:00 +20°C° 0 mm 3 mps 674 mmHg 26%
    12:00 +22°C° 0 mm 3 mps 674 mmHg 24%
    13:00 +22°C° 0 mm 4 mps 673 mmHg 23%
    14:00 +23°C° 0 mm 4 mps 673 mmHg 23%
    15:00 +23°C° 0 mm 4 mps 673 mmHg 22%
    16:00 +22°C° 0 mm 3 mps 673 mmHg 25%
    17:00 +20°C° 0 mm 3 mps 672 mmHg 27%
    18:00 +19°C° 0 mm 2 mps 672 mmHg 30%
    19:00 +18°C° 0 mm 2 mps 672 mmHg 31%
    20:00 +18°C° 0 mm 1 mps 673 mmHg 33%
    21:00 +18°C° 0 mm 1 mps 673 mmHg 35%
    22:00 +16°C° 0 mm 1 mps 673 mmHg 36%
    23:00 +15°C° 0 mm 1 mps 673 mmHg 37%

    26 October, Thursday

    Time Temperature Precipitation Wind Pressure Humidity
    00:00 +15°C° 0 mm 1 mps 672 mmHg 38%
    01:00 +14°C° 0 mm 1 mps 672 mmHg 40%
    02:00 +14°C° 0 mm 1 mps 672 mmHg 42%
    03:00 +13°C° 0 mm 1 mps 672 mmHg 44%
    04:00 +13°C° 0 mm 1 mps 672 mmHg 47%
    05:00 +13°C° 0 mm 1 mps 672 mmHg 49%
    06:00 +12°C° 0 mm 1 mps 672 mmHg 52%
    07:00 +14°C° 0 mm 1 mps 673 mmHg 48%
    08:00 +15°C° 0 mm 1 mps 673 mmHg 45%
    09:00 +18°C° 0 mm 1 mps 674 mmHg 41%
    10:00 +19°C° 0 mm 1 mps 674 mmHg 38%
    11:00 +20°C° 0 mm 1 mps 674 mmHg 36%
    12:00 +20°C° 0 mm 2 mps 674 mmHg 33%
    13:00 +20°C° 0 mm 2 mps 674 mmHg 31%
    14:00 +21°C° 0 mm 2 mps 674 mmHg 30%
    15:00 +21°C° 0 mm 2 mps 673 mmHg 28%
    16:00 +20°C° 0 mm 2 mps 673 mmHg 32%
    17:00 +19°C° 0 mm 2 mps 673 mmHg 35%
    18:00 +18°C° 0 mm 2 mps 673 mmHg 38%
    19:00 +17°C° 0 mm 2 mps 673 mmHg 41%
    20:00 +17°C° 0 mm 2 mps 673 mmHg 44%
    21:00 +16°C° 0 mm 2 mps 674 mmHg 47%
    22:00 +15°C° 0 mm 2 mps 674 mmHg 49%
    23:00 +15°C° 0 mm 2 mps 674 mmHg 50%

    27 October, Friday

    Time Temperature Precipitation Wind Pressure Humidity
    00:00 +14°C° 0 mm 2 mps 674 mmHg 52%
    01:00 +14°C° 0 mm 2 mps 673 mmHg 54%
    02:00 +13°C° 0 mm 2 mps 673 mmHg 56%
    03:00 +13°C° 0 mm 2 mps 673 mmHg 58%
    04:00 +13°C° 0 mm 2 mps 673 mmHg 61%
    05:00 +12°C° 0 mm 2 mps 673 mmHg 63%
    06:00 +12°C° 0 mm 2 mps 673 mmHg 65%
    07:00 +13°C° 0 mm 1 mps 673 mmHg 61%
    08:00 +14°C° 0 mm 1 mps 673 mmHg 57%
    09:00 +15°C° 0 mm 1 mps 674 mmHg 53%
    10:00 +16°C° 0 mm 1 mps 674 mmHg 48%
    11:00 +18°C° 0 mm 1 mps 674 mmHg 43%
    12:00 +19°C° 0 mm 1 mps 673 mmHg 38%
    13:00 +20°C° 0 mm 1 mps 673 mmHg 36%
    14:00 +20°C° 0 mm 1 mps 673 mmHg 33%
    15:00 +20°C° 0 mm 2 mps 672 mmHg 31%
    16:00 +20°C° 0 mm 1 mps 672 mmHg 33%
    17:00 +19°C° 0 mm 1 mps 672 mmHg 35%
    18:00 +18°C° 0 mm 1 mps 671 mmHg 37%
    19:00 +16°C° 0 mm 1 mps 671 mmHg 39%
    20:00 +16°C° 0 mm 1 mps 671 mmHg 41%
    21:00 +15°C° 0 mm 1 mps 671 mmHg 43%
    22:00 +15°C° 0 mm 1 mps 671 mmHg 45%
    23:00 +14°C° 0 mm 1 mps 671 mmHg 46%

    28 October, Saturday

    Time Temperature Precipitation Wind Pressure Humidity
    00:00 +14°C° 0 mm 1 mps 671 mmHg 47%
    01:00 +13°C° 0 mm 1 mps 670 mmHg 48%
    02:00 +13°C° 0 mm 1 mps 670 mmHg 49%
    03:00 +12°C° 0 mm 1 mps 670 mmHg 50%
    04:00 +12°C° 0 mm 1 mps 670 mmHg 50%
    05:00 +12°C° 0 mm 1 mps 670 mmHg 50%
    06:00 +12°C° 0 mm 1 mps 670 mmHg 49%
    07:00 +13°C° 0 mm 1 mps 670 mmHg 45%
    08:00 +14°C° 0 mm 2 mps 671 mmHg 41%
    09:00 +16°C° 0 mm 2 mps 671 mmHg 37%
    10:00 +17°C° 0 mm 2 mps 671 mmHg 36%
    11:00 +18°C° 0 mm 3 mps 671 mmHg 36%
    12:00 +20°C° 0 mm 3 mps 671 mmHg 35%
    13:00 +20°C° 0 mm 4 mps 670 mmHg 34%
    14:00 +21°C° 0 mm 4 mps 670 mmHg 33%
    15:00 +21°C° 0 mm 4 mps 669 mmHg 32%
    16:00 +20°C° 0 mm 3 mps 669 mmHg 34%
    17:00 +19°C° 0 mm 3 mps 669 mmHg 36%
    18:00 +18°C° 0 mm 2 mps 669 mmHg 39%
    19:00 +17°C° 0.1 mm 2 mps 669 mmHg 41%
    20:00 +16°C° 0.1 mm 2 mps 668 mmHg 43%
    21:00 +16°C° 0.1 mm 1 mps 668 mmHg 45%
    22:00 +15°C° 0 mm 1 mps 668 mmHg 46%
    23:00 +15°C° 0 mm 1 mps 668 mmHg 48%

    29 October, Sunday

    Time Temperature Precipitation Wind Pressure Humidity
    00:00 +15°C° 0 mm 1 mps 668 mmHg 49%
    01:00 +14°C° 0 mm 1 mps 668 mmHg 51%
    02:00 +13°C° 0 mm 1 mps 667 mmHg 53%
    03:00 +13°C° 0 mm 1 mps 667 mmHg 55%
    04:00 +12°C° 0 mm 1 mps 667 mmHg 56%
    05:00 +12°C° 0 mm 1 mps 667 mmHg 57%
    06:00 +12°C° 0 mm 1 mps 667 mmHg 58%
    07:00 +13°C° 0 mm 1 mps 667 mmHg 54%
    08:00 +15°C° 0 mm 2 mps 668 mmHg 49%
    09:00 +16°C° 0 mm 2 mps 668 mmHg 45%
    10:00 +17°C° 0 mm 3 mps 668 mmHg 41%
    11:00 +19°C° 0 mm 3 mps 668 mmHg 36%
    12:00 +20°C° 0 mm 4 mps 668 mmHg 31%
    13:00 +20°C° 0 mm 5 mps 668 mmHg 30%
    14:00 +21°C° 0 mm 6 mps 667 mmHg 29%
    15:00 +21°C° 0 mm 7 mps 667 mmHg 28%
    16:00 +20°C° 0 mm 6 mps 667 mmHg 32%
    17:00 +19°C° 0 mm 5 mps 667 mmHg 36%
    18:00 +17°C° 0 mm 4 mps 666 mmHg 40%
    19:00 +17°C° 0 mm 4 mps 666 mmHg 45%
    20:00 +15°C° 0 mm 4 mps 666 mmHg 50%
    21:00 +16°C° 0 mm 3 mps 666 mmHg 54%
    22:00 +14°C° 0 mm 3 mps 666 mmHg 59%
    23:00 +14°C° 0 mm 3 mps 666 mmHg 63%
    Show more